Weather reports worldwide

Advertisment
St. Athan, United Kingdom (3716): temperature & dewpoint: 19.03.2019 17:00:00 - 25.03.2019 17:00:00 (GMT)St. Athan, United Kingdom (3716): temperature -20cm & temperature -100cm: 19.03.2019 17:00:00 - 25.03.2019 17:00:00 (GMT)St. Athan, United Kingdom (3716): wind speed: 19.03.2019 17:00:00 - 25.03.2019 17:00:00 (GMT)St. Athan, United Kingdom (3716): wind direction: 19.03.2019 17:00:00 - 25.03.2019 17:00:00 (GMT)St. Athan, United Kingdom (3716): reduced air pressure: 19.03.2019 17:00:00 - 25.03.2019 17:00:00 (GMT)St. Athan, United Kingdom (3716): visibility: 19.03.2019 17:00:00 - 25.03.2019 17:00:00 (GMT)St. Athan, United Kingdom (3716): sunshine duration: 19.03.2019 17:00:00 - 25.03.2019 17:00:00 (GMT)St. Athan, United Kingdom (3716): precipitation: 19.03.2019 17:00:00 - 25.03.2019 17:00:00 (GMT)
Date & Time tt [°C] td [°C] tt -20cm [°C] tt -100cm [°C] ff [km/h] ff [kn] dd ppp [hPa] vv [km] sd [min] rr [mm]
25.03.2019 17:00:00 - - - - - - - - - - -
25.03.2019 16:00:00 10,2 3,7 - - 13 7 SW 1034,0 29 60 0,0
25.03.2019 15:00:00 10,6 2,6 - - 13 7 SW 1034,1 10 60 0,0
25.03.2019 14:00:00 10,6 4,3 - - 13 7 SSW 1034,2 10 60 0,0
25.03.2019 13:00:00 10,7 2,8 - - 11 6 S 1034,3 40 54 0,0
25.03.2019 12:00:00 11,5 0,4 - - 11 6 NE 1034,3 60 60 0,0
25.03.2019 11:00:00 10,5 0,9 - - 11 6 N 1034,3 10 60 0,0
25.03.2019 10:00:00 9,9 0,9 - - 15 8 N 1034,6 10 36 0,0
25.03.2019 09:00:00 8,6 3,2 9,9 9,4 13 7 N 1034,2 10 18 0,0
25.03.2019 08:00:00 7,4 3,3 - - 5 3 WNW 1033,6 24 0 0,0
25.03.2019 07:00:00 7,2 3,1 - - 8 4 WNW 1032,7 25 0 0,0
25.03.2019 06:00:00 6,8 3,3 - - 4 2 W 1032,3 22 0 0,0
25.03.2019 05:00:00 7,1 3,7 - - 15 8 WNW 1031,7 23 0 0,0
25.03.2019 04:00:00 7,1 3,5 - - 16 9 WNW 1031,5 22 0 0,0
25.03.2019 03:00:00 7,4 3,5 - - 18 10 WNW 1031,1 25 0 0,0
25.03.2019 02:00:00 7,6 4,7 - - 18 10 WNW 1031,5 25 0 0,0
25.03.2019 01:00:00 8,0 5,4 - - 16 9 WNW 1031,6 26 0 0,0
25.03.2019 00:00:00 7,6 5,7 - - 16 9 WNW 1031,6 25 - 0,0
24.03.2019 23:00:00 7,4 5,5 - - 15 8 WNW 1031,7 30 0 0,0
24.03.2019 22:00:00 7,3 5,7 - - 13 7 W 1032,0 28 0 0,0
24.03.2019 21:00:00 7,3 5,2 - - 15 8 W 1032,3 35 0 0,0
24.03.2019 20:00:00 7,8 2,4 - - 9 5 W 1032,0 45 0 0,0
24.03.2019 19:00:00 8,5 1,6 - - 9 5 WNW 1031,9 75 6 0,0
24.03.2019 18:00:00 9,6 1,2 - - 21 11 NW 1031,5 75 54 0,0
24.03.2019 17:00:00 10,6 1,7 - - 24 13 W 1031,0 75 60 0,0
24.03.2019 16:00:00 11,3 0,9 - - 24 13 W 1031,1 10 60 0,0
24.03.2019 15:00:00 10,6 3,1 - - 24 13 W 1031,3 60 60 0,0
24.03.2019 14:00:00 10,5 1,8 - - 24 13 W 1031,6 50 60 0,0
24.03.2019 13:00:00 10,7 1,9 - - 26 14 W 1032,1 10 60 0,0
24.03.2019 12:00:00 11,1 1,9 - - 15 8 NW 1032,5 10 60 0,0
24.03.2019 11:00:00 10,5 1,0 - - 16 9 NW 1032,7 70 60 0,0
24.03.2019 10:00:00 9,8 1,0 - - 9 5 NW 1032,8 70 60 0,0
24.03.2019 09:00:00 9,0 2,0 10,0 9,2 9 5 NW 1032,8 45 54 0,0
24.03.2019 08:00:00 6,2 3,3 - - 8 4 N 1032,8 30 30 0,0
24.03.2019 07:00:00 5,7 3,2 - - 8 4 NW 1032,3 20 6 0,0
24.03.2019 06:00:00 6,0 2,4 - - 11 6 NW 1032,0 25 0 0,0
24.03.2019 05:00:00 6,3 2,5 - - 5 3 W 1031,8 26 0 0,0
24.03.2019 04:00:00 7,1 2,0 - - 5 3 NE 1031,5 27 0 0,0
24.03.2019 03:00:00 7,7 2,4 - - 5 3 N 1031,5 27 0 0,0
24.03.2019 02:00:00 7,6 2,6 - - 5 3 NE 1031,9 27 0 0,0
24.03.2019 01:00:00 7,8 2,5 - - 9 5 NE 1032,6 27 0 0,0
24.03.2019 00:00:00 8,1 2,8 - - 9 5 NE 1033,1 25 - 0,0
23.03.2019 23:00:00 8,1 2,9 - - 13 7 NNE 1033,0 27 0 0,0
23.03.2019 22:00:00 7,7 2,9 - - 11 6 NE 1032,9 26 0 0,0
23.03.2019 21:00:00 8,3 2,8 - - 13 7 NE 1032,9 30 0 0,0
23.03.2019 20:00:00 9,0 2,8 - - 15 8 ENE 1032,5 30 0 0,0
23.03.2019 19:00:00 9,6 3,6 - - 13 7 NE 1032,4 25 0 0,0
23.03.2019 18:00:00 10,1 3,9 - - 13 7 NE 1032,1 30 0 0,0
23.03.2019 17:00:00 10,8 4,5 - - 13 7 ENE 1032,0 30 0 0,0
23.03.2019 16:00:00 11,1 3,9 - - 15 8 ENE 1032,1 30 0 0,0
23.03.2019 15:00:00 11,7 5,4 - - 15 8 E 1032,1 10 6 0,0
23.03.2019 14:00:00 11,6 4,8 - - 16 9 E 1032,5 10 6 0,0
23.03.2019 13:00:00 11,4 3,3 - - 15 8 ENE 1032,8 10 60 0,0
23.03.2019 12:00:00 11,4 4,5 - - 21 11 NE 1032,7 10 54 0,0
23.03.2019 11:00:00 10,0 4,2 - - 18 10 ENE 1032,7 10 6 0,0
23.03.2019 10:00:00 9,4 3,8 - - 21 11 NE 1032,8 10 0 0,0
23.03.2019 09:00:00 8,6 5,7 10,0 9,2 11 6 NNE 1032,7 10 0 0,0
23.03.2019 08:00:00 7,9 5,9 - - 9 5 NNE 1032,2 30 0 0,0
23.03.2019 07:00:00 7,2 5,6 - - 8 4 N 1031,7 35 0 0,0
23.03.2019 06:00:00 6,9 5,7 - - 4 2 WNW 1030,7 20 0 0,0
23.03.2019 05:00:00 7,7 6,3 - - 2 1 SSW 1030,5 30 0 0,0
23.03.2019 04:00:00 8,7 6,4 - - 5 3 NNW 1029,9 45 0 0,0
23.03.2019 03:00:00 8,5 7,5 - - 9 5 NNE 1029,4 40 0 0,0
23.03.2019 02:00:00 8,3 7,9 - - 9 5 NNW 1029,3 3,1 0 0,2
23.03.2019 01:00:00 9,2 8,9 - - 11 6 W 1028,6 3,1 0 0,0
23.03.2019 00:00:00 9,1 8,7 - - 9 5 W 1028,2 1,2 - 0,2
22.03.2019 23:00:00 9,3 8,6 - - 9 5 W 1028,5 1,4 0 0,0
22.03.2019 22:00:00 9,6 8,6 - - 13 7 W 1028,5 14 0 0,0
22.03.2019 21:00:00 9,7 8,6 - - 15 8 W 1028,1 14 0 0,0
22.03.2019 20:00:00 9,8 8,4 - - 16 9 W 1028,0 14 0 0,0
22.03.2019 19:00:00 9,0 7,8 - - 13 7 WSW 1027,6 11 0 0,0
22.03.2019 18:00:00 9,8 8,0 - - 16 9 W 1027,2 17 0 0,0
22.03.2019 17:00:00 10,6 7,5 - - 18 10 W 1026,9 24 0 0,0
22.03.2019 16:00:00 10,9 7,2 - - 18 10 W 1026,8 10 0 0,0
22.03.2019 15:00:00 11,2 7,0 - - 18 10 W 1026,9 10 0 0,0
22.03.2019 14:00:00 10,9 7,3 - - 15 8 W 1027,0 35 0 0,0
22.03.2019 13:00:00 11,1 7,2 - - 11 6 W 1027,4 10 0 0,0
22.03.2019 12:00:00 11,0 7,2 - - 8 4 WSW 1027,5 10 0 0,0
22.03.2019 11:00:00 10,4 7,3 - - 8 4 SSW 1027,8 55 0 0,0
22.03.2019 10:00:00 9,7 7,3 - - 9 5 SSE 1028,0 10 0 0,0
22.03.2019 09:00:00 10,0 7,4 9,9 9,0 8 4 S 1028,0 40 0 0,0
22.03.2019 08:00:00 9,5 6,1 - - 9 5 SW 1028,3 70 0 0,0
22.03.2019 07:00:00 9,0 6,7 - - 15 8 WSW 1028,3 40 0 0,0
22.03.2019 06:00:00 9,0 6,7 - - 13 7 WSW 1028,1 35 0 0,0
22.03.2019 05:00:00 9,0 6,7 - - 16 9 SW 1028,3 35 0 0,0
22.03.2019 04:00:00 9,2 6,8 - - 11 6 S 1028,5 27 0 0,0
22.03.2019 03:00:00 9,3 7,8 - - 8 4 S 1028,8 30 0 0,0
22.03.2019 02:00:00 9,3 8,4 - - 11 6 S 1028,9 28 0 0,0
22.03.2019 01:00:00 9,4 9,0 - - 8 4 SE 1029,5 4,6 0 0,0
22.03.2019 00:00:00 9,4 9,0 - - 4 2 E 1030,2 6 - 0,0
21.03.2019 23:00:00 9,3 9,0 - - 5 3 E 1030,5 8 0 0,0
21.03.2019 22:00:00 9,0 8,6 - - 4 2 SE 1030,9 5 0 0,0
21.03.2019 21:00:00 9,0 8,6 - - 5 3 WSW 1031,4 13 0 0,0
21.03.2019 20:00:00 9,1 8,2 - - 8 4 WSW 1031,8 11 0 0,0
21.03.2019 19:00:00 10,4 8,7 - - 5 3 W 1031,8 50 0 0,0
21.03.2019 18:00:00 11,0 9,0 - - 9 5 WNW 1031,9 40 0 0,0
21.03.2019 17:00:00 10,9 9,0 - - 8 4 WNW 1032,2 60 0 0,0
21.03.2019 16:00:00 10,8 9,0 - - 11 6 NW 1032,5 10 0 0,0
21.03.2019 15:00:00 10,4 9,0 - - 13 7 NW 1032,8 10 0 0,0
21.03.2019 14:00:00 11,0 9,1 - - 11 6 W 1033,5 75 0 0,0
21.03.2019 13:00:00 10,5 9,1 - - 13 7 W 1034,1 65 0 0,0
21.03.2019 12:00:00 10,5 9,7 - - 15 8 W 1034,5 30 6 0,0
21.03.2019 11:00:00 10,2 10,0 - - 13 7 WSW 1034,5 3,0 0 0,0
21.03.2019 10:00:00 9,6 9,4 - - 8 4 SW 1034,4 2,0 0 0,0
21.03.2019 09:00:00 9,1 8,9 9,5 8,9 5 3 WSW 1034,4 3,3 0 0,2
21.03.2019 08:00:00 8,7 8,5 - - 4 2 S 1034,2 2,7 0 0,2
21.03.2019 07:00:00 8,3 8,1 - - 2 1 S 1034,0 1,3 0 0,2
21.03.2019 06:00:00 8,3 8,1 - - 2 1 S 1033,6 1,4 0 0,2
21.03.2019 05:00:00 8,3 8,1 - - 0 0 N 1033,2 1,5 0 0,2
21.03.2019 04:00:00 8,2 8,0 - - 0 0 N 1032,8 1,1 0 0,2
21.03.2019 03:00:00 8,3 8,1 - - 4 2 SSW 1033,0 0,6 0 0,2
21.03.2019 02:00:00 8,4 8,1 - - 8 4 WSW 1033,5 1,4 0 0,0
21.03.2019 01:00:00 8,2 7,9 - - 8 4 W 1033,8 1,4 0 0,0
21.03.2019 00:00:00 8,0 7,6 - - 9 5 W 1034,0 3,5 - 0,0
20.03.2019 23:00:00 7,9 7,4 - - 9 5 W 1033,9 5 0 0,0
20.03.2019 22:00:00 8,2 7,7 - - 9 5 WNW 1033,8 60 0 0,2
20.03.2019 21:00:00 8,3 7,8 - - 13 7 W 1033,7 4,5 0 0,0
20.03.2019 20:00:00 8,4 8,0 - - 13 7 W 1033,6 9 0 0,0
20.03.2019 19:00:00 8,4 7,8 - - 13 7 WNW 1033,4 7 0 0,0
20.03.2019 18:00:00 8,6 7,7 - - 11 6 WNW 1033,1 35 0 0,0
20.03.2019 17:00:00 8,4 7,7 - - 15 8 WNW 1032,8 35 0 0,0
20.03.2019 16:00:00 8,9 8,0 - - 16 9 W 1032,6 19 0 0,0
20.03.2019 15:00:00 9,6 8,3 - - 13 7 NW 1032,8 22 0 0,0
20.03.2019 14:00:00 9,7 7,9 - - 13 7 WNW 1032,8 40 0 0,0
20.03.2019 13:00:00 10,3 8,5 - - 9 5 W 1033,0 75 0 0,0
20.03.2019 12:00:00 9,9 8,0 - - 8 4 W 1033,2 65 12 0,0
20.03.2019 11:00:00 9,1 8,4 - - 9 5 SW 1033,1 9 0 0,0
20.03.2019 10:00:00 8,7 8,2 - - 9 5 SW 1033,1 16 0 0,0
20.03.2019 09:00:00 9,0 8,6 9,0 8,9 8 4 W 1033,0 6 0 0,0
20.03.2019 08:00:00 8,8 8,4 - - 8 4 WSW 1032,2 8 0 0,0
20.03.2019 07:00:00 8,6 8,1 - - 8 4 W 1031,7 5 0 0,0
20.03.2019 06:00:00 8,7 8,3 - - 9 5 WNW 1031,1 30 0 0,0
20.03.2019 05:00:00 8,9 8,5 - - 8 4 W 1030,8 30 0 0,0
20.03.2019 04:00:00 9,0 8,7 - - 8 4 WNW 1030,6 10 0 0,0
20.03.2019 03:00:00 9,1 8,8 - - 9 5 W 1030,7 35 0 0,2
20.03.2019 02:00:00 9,1 8,8 - - 13 7 W 1030,7 4,1 0 0,0
20.03.2019 01:00:00 9,3 8,8 - - 13 7 WSW 1030,9 2,8 0 0,0
20.03.2019 00:00:00 9,3 8,5 - - 11 6 W 1030,8 27 - 0,0
19.03.2019 23:00:00 8,7 8,1 - - 5 3 SSW 1030,4 30 0 0,0
19.03.2019 22:00:00 9,1 8,3 - - 11 6 W 1030,2 4,0 0 0,0
19.03.2019 21:00:00 9,1 8,0 - - 9 5 W 1029,9 45 0 0,0
19.03.2019 20:00:00 9,2 7,9 - - 15 8 W 1029,7 40 0 0,0
19.03.2019 19:00:00 9,3 7,2 - - 16 9 W 1029,1 55 0 0,0
19.03.2019 18:00:00 9,5 7,2 - - 16 9 WNW 1029,1 50 0 0,0
19.03.2019 17:00:00 9,6 6,7 - - 16 9 W 1028,3 75 36 0,0

tt = temperature
td = dewpoint
tt -20cm = temperature -20cm
tt -100cm = temperature -100cm
ff = wind speed
dd = wind direction
ppp = reduced air pressure
vv = visibility
sd = sunshine duration
rr = precipitation

Next stations